This demonstration page uses our WeatherBlox Daily Observations layout. Learn more.

Left ArrowRight Arrow

34.74481, -87.66753

Hourly Observations for August 9, 2022

Temp ( °F °C ) Dew Point ( °F °C ) Humidity (%) Winds ( mph kmh ) Pressure ( in mb ) Visibility ( mi km ) Precip ( " mm )
12:42 am 00:42 Mostly Cloudy with Nearby Thunderstorms 74 23.3 70 21.1 87 87 SSE 6 9 30.07 1018 10 16 0.00 0.00
12:53 am 00:53 Mostly Clear with Light Rain 74 23.3 71 21.7 91 91 VRB 3 6 30.07 1018 9 14 0.01 0.13
1:53 am 01:53 Clear 74 23.3 71 21.7 91 91 NE 7 11 30.04 1017 10 16 0.02 0.51
2:53 am 02:53 Clear 74 23.3 71 21.7 91 91 Calm 30.05 1018 10 16 0.01 0.25
3:53 am 03:53 Clear 74 23.3 72 22.2 94 94 S 3 6 30.05 1018 10 16 0.00 0.00
4:53 am 04:53 Clear 73 22.8 72 22.2 96 96 SSW 3 6 30.06 1018 10 16 0.00 0.00
5:13 am 05:13 Mostly Clear 73 22.8 72 22.2 96 96 S 3 6 30.06 1018 10 16 0.00 0.00
5:53 am 05:53 Clear 73 22.8 71 21.7 94 94 SSE 3 6 30.07 1018 9 14 0.00 0.00
6:53 am 06:53 Sunny 74 23.3 72 22.2 94 94 Calm 30.09 1019 10 16 0.00 0.00
7:53 am 07:53 Sunny 75 23.9 73 22.8 94 94 SSW 3 6 30.10 1019 10 16 0.00 0.00
8:53 am 08:53 Sunny 78 25.6 73 22.8 85 85 SSW 5 7 30.11 1020 10 16 0.00 0.00
9:53 am 09:53 Sunny 81 27.2 73 22.8 77 77 SW 6 9 30.11 1020 10 16 0.00 0.00
10:53 am 10:53 Sunny 85 29.4 73 22.8 68 68 WNW 6 9 30.11 1020 10 16 0.00 0.00
12:53 pm 12:53 Sunny 88 31.1 72 22.2 59 59 WSW 7 11 30.08 1019 10 16 0.00 0.00
1:53 pm 13:53 Sunny 89 31.7 73 22.8 59 59 VRB 6 9 30.05 1018 10 16 0.00 0.00
2:53 pm 14:53 Sunny 90 32.2 71 21.7 54 54 SSW 5 7 30.03 1017 10 16 0.00 0.00
3:08 pm 15:08 Sunny with Nearby Thunderstorms 91 32.8 72 22.2 54 54 undefined N/A 30.01 1016 10 16 0.00 0.00
3:53 pm 15:53 Partly Cloudy with Nearby Thunderstorms 89 31.7 70 21.1 54 54 SSW 5 7 30.01 1016 10 16 0.00 0.00
4:09 pm 16:09 Mostly Cloudy 88 31.1 73 22.8 61 61 SSW 7 11 30.01 1016 10 16 0.00 0.00
4:53 pm 16:53 Sunny 86 30 73 22.8 65 65 SSW 5 7 30.02 1017 10 16 0.00 0.00
5:53 pm 17:53 Partly Cloudy with Light Rain 81 27.2 73 22.8 77 77 W 6 9 30.04 1017 10 16 0.01 0.25
6:22 pm 18:22 Mostly Cloudy with Nearby Thunderstorms 81 27.2 75 23.9 82 82 WSW 3 6 30.03 1017 10 16 0.01 0.13
6:37 pm 18:37 Mostly Sunny 81 27.2 76 24.4 85 85 Calm 30.03 1017 10 16 0.01 0.13
6:53 pm 18:53 Sunny 80 26.7 76 24.4 87 87 E 3 6 30.06 1018 10 16 0.01 0.13
7:53 pm 19:53 Partly Cloudy 77 25 73 22.8 88 88 WNW 9 15 30.08 1019 10 16 0.00 0.00
8:53 pm 20:53 Mostly Clear 76 24.4 73 22.8 91 91 S 6 9 30.07 1018 10 16 0.00 0.00
9:18 pm 21:18 Clear with Nearby Thunderstorms 75 23.9 73 22.8 94 94 ESE 5 7 30.07 1018 10 16 0.00 0.00
9:33 pm 21:33 Clear 75 23.9 73 22.8 94 94 SE 3 6 30.06 1018 10 16 0.00 0.00
9:53 pm 21:53 Clear 76 24.4 73 22.8 91 91 Calm 30.05 1018 10 16 0.00 0.00
10:53 pm 22:53 Clear 75 23.9 73 22.8 94 94 Calm 30.07 1018 10 16 0.00 0.00
11:53 pm 23:53 Mostly Cloudy 75 23.9 73 22.8 94 94 Calm 30.10 1019 10 16 0.00 0.00

Powered by AerisWeather